Location: Dugenta
(41.1333°N, 14.4500°E)
Time: 10:15:21
(UTC+00:00)

Okean-O - Pass Details

Date: 03 March 2021
Orbit: 639 x 640 km, 98.2° (Epoch: 21 April)

Event Time Altitude Azimuth Distance (km) Brightness Sun altitude
Rises 18:19:47 0° 184° (S) 2,930 6.0 -16.6°
Reaches altitude 10° 18:22:05 10° 191° (S) 2,026 5.3 -17.1°
Maximum altitude 18:26:14 40° 261° (W) 945 4.0 -17.9°
Drops below altitude 10° 18:30:26 10° 332° (NNW) 2,041 5.7 -18.6°
Sets 18:32:45 0° 340° (NNW) 2,954 6.4 -19.1°
